| time (UTC) | temp C | wind direction | speed KPH | gust KPH | rain 1hr cm | rain 24hr cm | rain mn cm | humidity % | barometer mb |
| 20260509053502 | 21 | 166 | 0.0 | 1.6 | 0.00 | 0.00 | 0.00 | 87 | 1007.0 |
| 20260509052959 | 21 | 163 | 0.0 | 0.0 | 0.00 | 0.00 | 0.00 | 87 | 1006.8 |
| 20260509052456 | 21 | 199 | 1.6 | 4.8 | 0.00 | 0.00 | 0.00 | 86 | 1006.7 |
| 20260509051954 | 21 | 161 | 1.6 | 3.2 | 0.00 | 0.00 | 0.00 | 86 | 1007.2 |
| 20260509051452 | 21 | 338 | 4.8 | 4.8 | 0.00 | 0.00 | 0.00 | 86 | 1007.8 |
| 20260509050949 | 21 | 310 | 4.8 | 8.0 | 0.00 | 0.00 | 0.00 | 86 | 1008.0 |
| 20260509050445 | 21 | 9 | 3.2 | 4.8 | 0.00 | 0.00 | 0.00 | 87 | 1007.6 |
| 20260509045942 | 21 | 33 | 1.6 | 4.8 | 0.00 | 0.43 | 0.43 | 86 | 1007.0 |
| 20260509045439 | 21 | 185 | 1.6 | 3.2 | 0.00 | 0.43 | 0.43 | 85 | 1006.3 |
| 20260509044936 | 21 | 181 | 1.6 | 3.2 | 0.00 | 0.43 | 0.43 | 85 | 1006.0 |
| 20260509044434 | 21 | 160 | 1.6 | 3.2 | 0.00 | 0.43 | 0.43 | 84 | 1006.3 |
| 20260509043931 | 21 | 110 | 3.2 | 3.2 | 0.00 | 0.43 | 0.43 | 84 | 1006.3 |
| 20260509043426 | 22 | 198 | 1.6 | 4.8 | 0.00 | 0.43 | 0.43 | 83 | 1005.9 |
| 20260509042922 | 22 | 175 | 4.8 | 9.7 | 0.00 | 0.43 | 0.43 | 83 | 1005.7 |
| 20260509042420 | 22 | 158 | 6.4 | 9.7 | 0.00 | 0.43 | 0.43 | 83 | 1006.2 |
| 20260509041915 | 22 | 193 | 1.6 | 8.0 | 0.00 | 0.43 | 0.43 | 82 | 1006.2 |
| 20260509041412 | 22 | 145 | 0.0 | 8.0 | 0.00 | 0.43 | 0.43 | 82 | 1006.2 |
| 20260509040911 | 22 | 121 | 11.3 | 14.5 | 0.00 | 0.43 | 0.43 | 82 | 1005.9 |
| 20260509040408 | 22 | 95 | 8.0 | 17.7 | 0.00 | 0.43 | 0.43 | 82 | 1005.8 |
| 20260509035905 | 22 | 124 | 4.8 | 9.7 | 0.00 | 0.43 | 0.43 | 82 | 1006.3 |
| 20260509035402 | 22 | 121 | 4.8 | 8.0 | 0.00 | 0.43 | 0.43 | 82 | 1006.5 |
| 20260509034858 | 22 | 119 | 4.8 | 4.8 | 0.00 | 0.43 | 0.43 | 82 | 1006.5 |
| 20260509034356 | 22 | 121 | 1.6 | 3.2 | 0.00 | 0.43 | 0.43 | 82 | 1007.1 |
| 20260509033853 | 22 | 29 | 0.0 | 1.6 | 0.00 | 0.43 | 0.43 | 82 | 1007.1 |
| 20260509033350 | 22 | 54 | 0.0 | 1.6 | 0.00 | 0.43 | 0.43 | 82 | 1007.1 |
| 20260509032846 | 22 | 89 | 0.0 | 0.0 | 0.00 | 0.43 | 0.43 | 82 | 1006.7 |
| 20260509032344 | 22 | 96 | 0.0 | 0.0 | 0.00 | 0.43 | 0.43 | 81 | 1006.7 |
| 20260509031842 | 22 | 136 | 0.0 | 0.0 | 0.00 | 0.43 | 0.43 | 81 | 1006.5 |
| 20260509031339 | 22 | 151 | 1.6 | 4.8 | 0.00 | 0.43 | 0.43 | 81 | 1006.4 |
| 20260509030836 | 22 | 136 | 1.6 | 3.2 | 0.00 | 0.43 | 0.43 | 81 | 1006.5 |
| 20260509030334 | 22 | 102 | 1.6 | 1.6 | 0.00 | 0.43 | 0.43 | 81 | 1006.5 |
| 20260509025831 | 22 | 92 | 0.0 | 1.6 | 0.00 | 0.43 | 0.43 | 81 | 1006.6 |
| 20260509025326 | 22 | 177 | 1.6 | 3.2 | 0.00 | 0.43 | 0.43 | 81 | 1006.4 |
| 20260509024822 | 22 | 153 | 0.0 | 3.2 | 0.00 | 0.43 | 0.43 | 81 | 1006.3 |
| 20260509024318 | 22 | 59 | 1.6 | 3.2 | 0.00 | 0.43 | 0.43 | 81 | 1005.8 |
| 20260509023816 | 22 | 140 | 3.2 | 4.8 | 0.00 | 0.43 | 0.43 | 81 | 1005.4 |
| 20260509023313 | 22 | 173 | 4.8 | 9.7 | 0.00 | 0.43 | 0.43 | 81 | 1005.4 |
| 20260509022809 | 22 | 148 | 8.0 | 14.5 | 0.00 | 0.43 | 0.43 | 81 | 1005.3 |
| 20260509022307 | 22 | 128 | 8.0 | 12.9 | 0.00 | 0.43 | 0.43 | 80 | 1005.2 |
| 20260509021803 | 22 | 122 | 4.8 | 9.7 | 0.00 | 0.43 | 0.43 | 80 | 1005.0 |
| 20260509021301 | 22 | 174 | 4.8 | 9.7 | 0.00 | 0.43 | 0.43 | 80 | 1004.9 |
| 20260509020758 | 22 | 183 | 6.4 | 11.3 | 0.00 | 0.43 | 0.43 | 80 | 1005.1 |
| 20260509020255 | 22 | 89 | 4.8 | 9.7 | 0.00 | 0.43 | 0.43 | 80 | 1005.1 |
| 20260509015753 | 22 | 144 | 1.6 | 9.7 | 0.00 | 0.43 | 0.43 | 80 | 1005.0 |
| 20260509015251 | 22 | 170 | 4.8 | 8.0 | 0.00 | 0.43 | 0.43 | 80 | 1005.1 |
| 20260509014747 | 22 | 142 | 1.6 | 4.8 | 0.00 | 0.43 | 0.43 | 80 | 1005.0 |
| 20260509014244 | 22 | 168 | 3.2 | 3.2 | 0.00 | 0.43 | 0.43 | 80 | 1005.1 |
| 20260509013741 | 22 | 165 | 3.2 | 9.7 | 0.00 | 0.43 | 0.43 | 79 | 1005.0 |
| 20260509013237 | 22 | 146 | 1.6 | 4.8 | 0.00 | 0.43 | 0.43 | 79 | 1005.0 |
| 20260509012734 | 22 | 152 | 1.6 | 4.8 | 0.00 | 0.43 | 0.43 | 79 | 1004.9 |
| 20260509012230 | 22 | 212 | 3.2 | 8.0 | 0.00 | 0.43 | 0.43 | 79 | 1005.1 |
| 20260509011728 | 22 | 168 | 1.6 | 4.8 | 0.00 | 0.43 | 0.43 | 79 | 1004.7 |
| 20260509011225 | 22 | 167 | 3.2 | 8.0 | 0.00 | 0.43 | 0.43 | 78 | 1005.0 |
| 20260509010723 | 22 | 140 | 1.6 | 3.2 | 0.00 | 0.43 | 0.43 | 78 | 1004.8 |
| 20260509010219 | 22 | 166 | 8.0 | 9.7 | 0.00 | 0.43 | 0.43 | 78 | 1004.8 |
| 20260509005717 | 22 | 142 | 4.8 | 8.0 | 0.00 | 0.43 | 0.43 | 77 | 1004.9 |
| 20260509005214 | 22 | 165 | 3.2 | 8.0 | 0.00 | 0.43 | 0.43 | 76 | 1004.7 |
| 20260509004714 | 22 | 139 | 6.4 | 8.0 | 0.00 | 0.43 | 0.43 | 76 | 1004.5 |
| 20260509004212 | 23 | 122 | 1.6 | 4.8 | 0.00 | 0.43 | 0.43 | 76 | 1004.5 |
| 20260509003710 | 23 | 149 | 4.8 | 17.7 | 0.00 | 0.43 | 0.43 | 76 | 1004.4 |
| 20260509003207 | 23 | 176 | 4.8 | 12.9 | 0.00 | 0.43 | 0.43 | 76 | 1004.2 |
| 20260509002704 | 23 | 156 | 9.7 | 12.9 | 0.00 | 0.43 | 0.43 | 75 | 1004.3 |
| 20260509002202 | 23 | 151 | 6.4 | 16.1 | 0.00 | 0.43 | 0.43 | 76 | 1004.3 |
| 20260509001659 | 23 | 159 | 8.0 | 12.9 | 0.00 | 0.43 | 0.43 | 75 | 1004.5 |
| 20260509001155 | 23 | 220 | 8.0 | 14.5 | 0.00 | 0.43 | 0.43 | 76 | 1004.4 |
| 20260509000653 | 23 | 78 | 11.3 | 14.5 | 0.00 | 0.43 | 0.43 | 75 | 1004.4 |
| 20260509000150 | 23 | 174 | 4.8 | 14.5 | 0.00 | 0.43 | 0.43 | 74 | 1004.4 |
| 20260508235647 | 23 | 126 | 8.0 | 11.3 | 0.00 | 0.43 | 0.43 | 74 | 1004.6 |
| 20260508235143 | 23 | 124 | 9.7 | 14.5 | 0.00 | 0.43 | 0.43 | 74 | 1004.6 |
| 20260508234641 | 23 | 143 | 4.8 | 16.1 | 0.00 | 0.43 | 0.43 | 75 | 1004.6 |
| 20260508234136 | 23 | 146 | 4.8 | 12.9 | 0.00 | 0.43 | 0.43 | 74 | 1004.7 |
| 20260508233631 | 23 | 103 | 1.6 | 8.0 | 0.00 | 0.43 | 0.43 | 73 | 1004.7 |
| 20260508233128 | 23 | 132 | 4.8 | 9.7 | 0.00 | 0.43 | 0.43 | 72 | 1004.9 |
| 20260508232625 | 23 | 115 | 6.4 | 8.0 | 0.00 | 0.43 | 0.43 | 72 | 1004.7 |
| 20260508232122 | 23 | 192 | 3.2 | 9.7 | 0.00 | 0.43 | 0.43 | 72 | 1004.9 |
| 20260508231619 | 23 | 148 | 8.0 | 11.3 | 0.00 | 0.43 | 0.43 | 72 | 1004.9 |
| 20260508231116 | 23 | 189 | 4.8 | 11.3 | 0.00 | 0.43 | 0.43 | 73 | 1004.9 |
| 20260508230612 | 23 | 154 | 3.2 | 12.9 | 0.00 | 0.43 | 0.43 | 73 | 1004.9 |
| 20260508230109 | 23 | 205 | 8.0 | 11.3 | 0.00 | 0.43 | 0.43 | 74 | 1004.9 |
| 20260508225607 | 24 | 160 | 6.4 | 11.3 | 0.00 | 0.43 | 0.43 | 72 | 1005.0 |
| 20260508225103 | 24 | 198 | 4.8 | 14.5 | 0.00 | 0.43 | 0.43 | 72 | 1004.9 |
| 20260508224601 | 24 | 179 | 4.8 | 11.3 | 0.00 | 0.43 | 0.43 | 71 | 1004.9 |
| 20260508224058 | 23 | 136 | 3.2 | 11.3 | 0.00 | 0.43 | 0.43 | 72 | 1005.0 |
| 20260508223556 | 24 | 122 | 4.8 | 4.8 | 0.00 | 0.43 | 0.43 | 71 | 1005.0 |
| 20260508223053 | 24 | 170 | 3.2 | 4.8 | 0.00 | 0.43 | 0.43 | 71 | 1005.0 |
| 20260508222550 | 24 | 206 | 11.3 | 14.5 | 0.00 | 0.43 | 0.43 | 71 | 1004.9 |
| 20260508222047 | 24 | 196 | 4.8 | 14.5 | 0.00 | 0.43 | 0.43 | 71 | 1004.8 |
| 20260508221543 | 25 | 215 | 11.3 | 16.1 | 0.00 | 0.43 | 0.43 | 70 | 1004.8 |
| 20260508221039 | 25 | 149 | 6.4 | 12.9 | 0.00 | 0.43 | 0.43 | 71 | 1004.5 |
| 20260508220536 | 25 | 170 | 1.6 | 12.9 | 0.00 | 0.43 | 0.43 | 70 | 1004.6 |
| 20260508220032 | 25 | 113 | 1.6 | 9.7 | 0.00 | 0.43 | 0.43 | 69 | 1004.8 |
| 20260508215529 | 25 | 122 | 6.4 | 12.9 | 0.00 | 0.43 | 0.43 | 70 | 1004.7 |
| 20260508215026 | 25 | 127 | 6.4 | 12.9 | 0.00 | 0.43 | 0.43 | 69 | 1004.7 |
| 20260508214524 | 25 | 107 | 6.4 | 9.7 | 0.00 | 0.43 | 0.43 | 68 | 1004.5 |
| 20260508214020 | 25 | 103 | 4.8 | 11.3 | 0.00 | 0.43 | 0.43 | 69 | 1004.9 |
| 20260508213518 | 25 | 207 | 8.0 | 14.5 | 0.00 | 0.43 | 0.43 | 70 | 1004.6 |
| 20260508213013 | 24 | 144 | 8.0 | 11.3 | 0.00 | 0.43 | 0.43 | 69 | 1004.7 |
| 20260508212510 | 24 | 146 | 8.0 | 9.7 | 0.00 | 0.43 | 0.43 | 70 | 1004.8 |
| 20260508212006 | 24 | 124 | 8.0 | 16.1 | 0.00 | 0.43 | 0.43 | 69 | 1004.9 |
| 20260508211501 | 25 | 158 | 3.2 | 8.0 | 0.00 | 0.43 | 0.43 | 69 | 1004.9 |
| 20260508210958 | 24 | 153 | 6.4 | 14.5 | 0.00 | 0.43 | 0.43 | 70 | 1005.2 |
| 20260508210455 | 24 | 138 | 8.0 | 11.3 | 0.00 | 0.43 | 0.43 | 69 | 1005.4 |
| 20260508205951 | 24 | 141 | 11.3 | 14.5 | 0.00 | 0.43 | 0.43 | 69 | 1005.7 |
| 20260508205449 | 23 | 155 | 4.8 | 8.0 | 0.00 | 0.43 | 0.43 | 71 | 1006.0 |
| 20260508204945 | 23 | 210 | 9.7 | 14.5 | 0.00 | 0.43 | 0.43 | 72 | 1006.3 |
| 20260508204442 | 23 | 162 | 12.9 | 16.1 | 0.00 | 0.43 | 0.43 | 71 | 1006.5 |
| 20260508203937 | 23 | 190 | 8.0 | 14.5 | 0.00 | 0.43 | 0.43 | 71 | 1006.8 |
| 20260508203434 | 23 | 189 | 3.2 | 9.7 | 0.00 | 0.43 | 0.43 | 71 | 1006.8 |
| 20260508202930 | 23 | 218 | 8.0 | 11.3 | 0.00 | 0.43 | 0.43 | 70 | 1007.0 |
| 20260508202427 | 23 | 175 | 3.2 | 11.3 | 0.00 | 0.43 | 0.43 | 71 | 1006.8 |
| 20260508201924 | 23 | 138 | 8.0 | 11.3 | 0.00 | 0.43 | 0.43 | 70 | 1006.9 |
| 20260508201421 | 24 | 145 | 4.8 | 14.5 | 0.00 | 0.43 | 0.43 | 70 | 1006.9 |
| 20260508200918 | 24 | 223 | 1.6 | 9.7 | 0.00 | 0.43 | 0.43 | 69 | 1006.9 |
| 20260508200414 | 24 | 204 | 6.4 | 9.7 | 0.00 | 0.43 | 0.43 | 69 | 1006.7 |
| 20260508195904 | 24 | 127 | 4.8 | 12.9 | 0.00 | 0.43 | 0.43 | 68 | 1006.7 |
| 20260508195401 | 24 | 215 | 6.4 | 11.3 | 0.00 | 0.43 | 0.43 | 67 | 1006.7 |
| 20260508194857 | 25 | 220 | 6.4 | 11.3 | 0.00 | 0.43 | 0.43 | 68 | 1006.9 |
| 20260508194354 | 25 | 155 | 9.7 | 11.3 | 0.00 | 0.43 | 0.43 | 67 | 1006.9 |
| 20260508193852 | 25 | 152 | 3.2 | 9.7 | 0.00 | 0.43 | 0.43 | 68 | 1007.0 |
| 20260508193348 | 25 | 100 | 4.8 | 11.3 | 0.00 | 0.43 | 0.43 | 66 | 1007.1 |
| 20260508192844 | 25 | 205 | 4.8 | 8.0 | 0.00 | 0.43 | 0.43 | 67 | 1007.0 |
| 20260508192342 | 25 | 182 | 3.2 | 16.1 | 0.00 | 0.43 | 0.43 | 67 | 1007.1 |
| 20260508191839 | 25 | 141 | 6.4 | 9.7 | 0.00 | 0.43 | 0.43 | 64 | 1007.1 |
| 20260508191336 | 25 | 144 | 3.2 | 11.3 | 0.00 | 0.43 | 0.43 | 65 | 1007.0 |
| 20260508190833 | 25 | 183 | 3.2 | 8.0 | 0.00 | 0.43 | 0.43 | 63 | 1007.3 |
| 20260508190329 | 25 | 159 | 4.8 | 4.8 | 0.00 | 0.43 | 0.43 | 63 | 1007.0 |
| 20260508185826 | 25 | 151 | 4.8 | 11.3 | 0.00 | 0.43 | 0.43 | 64 | 1006.9 |
| 20260508185323 | 25 | 125 | 4.8 | 9.7 | 0.00 | 0.43 | 0.43 | 62 | 1007.2 |
| 20260508184820 | 25 | 120 | 6.4 | 11.3 | 0.00 | 0.43 | 0.43 | 63 | 1007.1 |
| 20260508184318 | 25 | 101 | 4.8 | 8.0 | 0.00 | 0.43 | 0.43 | 61 | 1007.1 |
| 20260508183815 | 25 | 164 | 3.2 | 12.9 | 0.00 | 0.43 | 0.43 | 64 | 1007.4 |
| 20260508183311 | 25 | 131 | 6.4 | 8.0 | 0.00 | 0.43 | 0.43 | 62 | 1007.4 |
| 20260508182807 | 24 | 150 | 3.2 | 4.8 | 0.00 | 0.43 | 0.43 | 64 | 1007.5 |
| 20260508182306 | 24 | 142 | 1.6 | 4.8 | 0.00 | 0.43 | 0.43 | 63 | 1007.7 |
| 20260508181759 | 24 | 120 | 8.0 | 12.9 | 0.00 | 0.43 | 0.43 | 63 | 1007.6 |
| 20260508181256 | 23 | 172 | 1.6 | 12.9 | 0.00 | 0.43 | 0.43 | 64 | 1007.7 |
| 20260508180754 | 24 | 199 | 4.8 | 4.8 | 0.00 | 0.43 | 0.43 | 65 | 1008.0 |
| 20260508180250 | 23 | 129 | 0.0 | 9.7 | 0.00 | 0.43 | 0.43 | 65 | 1008.1 |
| 20260508175747 | 23 | 144 | 0.0 | 3.2 | 0.00 | 0.43 | 0.43 | 64 | 1008.1 |
| 20260508175243 | 24 | 185 | 8.0 | 12.9 | 0.00 | 0.43 | 0.43 | 65 | 1008.2 |
| 20260508174741 | 23 | 181 | 6.4 | 9.7 | 0.00 | 0.43 | 0.43 | 64 | 1008.1 |
| 20260508174239 | 23 | 161 | 4.8 | 4.8 | 0.00 | 0.43 | 0.43 | 65 | 1008.3 |
| 20260508173735 | 23 | 65 | 1.6 | 3.2 | 0.00 | 0.43 | 0.43 | 65 | 1008.3 |
| 20260508173231 | 23 | 138 | 4.8 | 9.7 | 0.00 | 0.43 | 0.43 | 65 | 1008.4 |
| 20260508172727 | 23 | 163 | 3.2 | 8.0 | 0.00 | 0.43 | 0.43 | 67 | 1008.4 |
| 20260508172225 | 23 | 142 | 6.4 | 8.0 | 0.00 | 0.43 | 0.43 | 67 | 1008.5 |
| 20260508171721 | 22 | 202 | 3.2 | 3.2 | 0.00 | 0.43 | 0.43 | 67 | 1008.6 |
| 20260508171217 | 22 | 157 | 3.2 | 4.8 | 0.00 | 0.43 | 0.43 | 68 | 1008.9 |
| 20260508170714 | 22 | 167 | 6.4 | 11.3 | 0.00 | 0.43 | 0.43 | 66 | 1009.0 |
| 20260508170212 | 22 | 179 | 3.2 | 14.5 | 0.00 | 0.43 | 0.43 | 67 | 1009.1 |
| 20260508165709 | 22 | 167 | 4.8 | 12.9 | 0.00 | 0.43 | 0.43 | 67 | 1009.4 |
| 20260508165206 | 22 | 171 | 8.0 | 9.7 | 0.00 | 0.43 | 0.43 | 67 | 1009.5 |
| 20260508164703 | 21 | 174 | 3.2 | 9.7 | 0.00 | 0.43 | 0.43 | 68 | 1009.5 |
| 20260508164159 | 21 | 178 | 3.2 | 4.8 | 0.00 | 0.43 | 0.43 | 68 | 1009.7 |
| 20260508163657 | 21 | 168 | 4.8 | 8.0 | 0.00 | 0.43 | 0.43 | 69 | 1009.7 |
| 20260508163154 | 21 | 96 | 3.2 | 4.8 | 0.00 | 0.43 | 0.43 | 69 | 1009.7 |
| 20260508162649 | 21 | 162 | 4.8 | 11.3 | 0.00 | 0.43 | 0.43 | 69 | 1010.0 |
| 20260508162147 | 20 | 96 | 3.2 | 11.3 | 0.00 | 0.43 | 0.43 | 70 | 1009.9 |
| 20260508161644 | 20 | 141 | 4.8 | 8.0 | 0.00 | 0.43 | 0.43 | 70 | 1010.1 |
| 20260508161142 | 20 | 147 | 4.8 | 12.9 | 0.00 | 0.43 | 0.43 | 71 | 1010.1 |
| 20260508160639 | 20 | 147 | 4.8 | 4.8 | 0.00 | 0.43 | 0.43 | 71 | 1010.0 |
| 20260508160137 | 20 | 190 | 6.4 | 9.7 | 0.00 | 0.43 | 0.43 | 71 | 1010.0 |
| 20260508155634 | 20 | 146 | 1.6 | 9.7 | 0.00 | 0.43 | 0.43 | 73 | 1010.2 |
| 20260508155131 | 20 | 151 | 3.2 | 9.7 | 0.00 | 0.43 | 0.43 | 73 | 1010.1 |
| 20260508154628 | 20 | 139 | 1.6 | 4.8 | 0.00 | 0.43 | 0.43 | 74 | 1010.3 |
| 20260508154124 | 20 | 185 | 4.8 | 11.3 | 0.00 | 0.43 | 0.43 | 72 | 1010.5 |
| 20260508153621 | 20 | 201 | 1.6 | 3.2 | 0.00 | 0.43 | 0.43 | 74 | 1010.4 |
| 20260508153118 | 19 | 189 | 8.0 | 11.3 | 0.00 | 0.43 | 0.43 | 74 | 1010.2 |
| 20260508152615 | 19 | 134 | 4.8 | 12.9 | 0.00 | 0.43 | 0.43 | 74 | 1010.3 |
| 20260508152110 | 20 | 127 | 6.4 | 9.7 | 0.00 | 0.43 | 0.43 | 74 | 1010.5 |
| 20260508151607 | 19 | 201 | 1.6 | 8.0 | 0.00 | 0.43 | 0.43 | 75 | 1010.4 |
| 20260508151104 | 19 | 216 | 4.8 | 8.0 | 0.00 | 0.43 | 0.43 | 75 | 1010.6 |
| 20260508150601 | 19 | 158 | 3.2 | 11.3 | 0.00 | 0.43 | 0.43 | 76 | 1010.4 |
| 20260508150057 | 20 | 149 | 4.8 | 8.0 | 0.00 | 0.43 | 0.43 | 75 | 1010.3 |
| 20260508145553 | 19 | 185 | 1.6 | 3.2 | 0.00 | 0.43 | 0.43 | 78 | 1010.4 |
| 20260508145050 | 19 | 144 | 1.6 | 4.8 | 0.00 | 0.43 | 0.43 | 77 | 1010.6 |
| 20260508144548 | 19 | 184 | 4.8 | 9.7 | 0.00 | 0.43 | 0.43 | 77 | 1010.4 |
| 20260508144045 | 18 | 153 | 4.8 | 11.3 | 0.00 | 0.43 | 0.43 | 79 | 1010.5 |
| 20260508143543 | 18 | 159 | 1.6 | 8.0 | 0.00 | 0.43 | 0.43 | 80 | 1010.6 |
| 20260508143039 | 18 | 150 | 4.8 | 4.8 | 0.00 | 0.43 | 0.43 | 79 | 1010.6 |
| 20260508142536 | 18 | 148 | 4.8 | 9.7 | 0.00 | 0.43 | 0.43 | 78 | 1010.8 |
| 20260508142032 | 18 | 220 | 8.0 | 11.3 | 0.00 | 0.43 | 0.43 | 78 | 1010.7 |
| 20260508141529 | 18 | 172 | 3.2 | 4.8 | 0.00 | 0.43 | 0.43 | 83 | 1010.7 |
| 20260508141027 | 17 | 136 | 3.2 | 3.2 | 0.00 | 0.43 | 0.43 | 85 | 1010.9 |
| 20260508140524 | 17 | 183 | 1.6 | 8.0 | 0.00 | 0.43 | 0.43 | 85 | 1011.1 |
| 20260508140020 | 17 | 135 | 0.0 | 3.2 | 0.00 | 0.43 | 0.43 | 87 | 1010.8 |
| 20260508135516 | 17 | 121 | 1.6 | 1.6 | 0.00 | 0.43 | 0.43 | 87 | 1010.6 |
| 20260508135012 | 17 | 135 | 1.6 | 3.2 | 0.00 | 0.43 | 0.43 | 88 | 1010.9 |
| 20260508134509 | 17 | 152 | 1.6 | 4.8 | 0.00 | 0.43 | 0.43 | 89 | 1010.8 |
| 20260508134006 | 17 | 138 | 0.0 | 1.6 | 0.00 | 0.43 | 0.43 | 90 | 1010.8 |
| 20260508133503 | 17 | 136 | 0.0 | 0.0 | 0.00 | 0.43 | 0.43 | 89 | 1010.7 |
| 20260508133000 | 16 | 133 | 1.6 | 1.6 | 0.00 | 0.43 | 0.43 | 90 | 1010.9 |
| 20260508132458 | 16 | 185 | 0.0 | 3.2 | 0.00 | 0.43 | 0.43 | 92 | 1010.8 |
| 20260508131954 | 16 | 166 | 1.6 | 3.2 | 0.00 | 0.43 | 0.43 | 91 | 1011.0 |
| 20260508131450 | 16 | 152 | 1.6 | 4.8 | 0.00 | 0.43 | 0.43 | 91 | 1010.7 |
| 20260508130947 | 16 | 136 | 0.0 | 1.6 | 0.00 | 0.43 | 0.43 | 92 | 1010.6 |
| 20260508130444 | 16 | 160 | 1.6 | 3.2 | 0.00 | 0.43 | 0.43 | 92 | 1010.6 |
| 20260508125939 | 16 | 124 | 1.6 | 3.2 | 0.00 | 0.43 | 0.43 | 95 | 1010.8 |
| 20260508125436 | 15 | 147 | 1.6 | 3.2 | 0.13 | 0.43 | 0.43 | 94 | 1011.3 |
| 20260508124934 | 15 | 216 | 0.0 | 1.6 | 0.61 | 0.43 | 0.43 | 92 | 1011.3 |
| 20260508124431 | 16 | 132 | 3.2 | 3.2 | 0.66 | 0.41 | 0.41 | 91 | 1010.7 |
| 20260508123929 | 16 | 181 | 4.8 | 9.7 | 0.18 | 0.33 | 0.33 | 90 | 1010.8 |
| 20260508123427 | 16 | 167 | 1.6 | 3.2 | 0.00 | 0.30 | 0.30 | 91 | 1011.3 |
| 20260508122923 | 16 | 208 | 1.6 | 1.6 | 0.00 | 0.30 | 0.30 | 90 | 1011.4 |
| 20260508122420 | 16 | 173 | 1.6 | 3.2 | 0.00 | 0.30 | 0.30 | 88 | 1011.3 |
| 20260508121917 | 16 | 151 | 4.8 | 8.0 | 0.00 | 0.30 | 0.30 | 88 | 1011.1 |
| 20260508121415 | 16 | 167 | 3.2 | 4.8 | 0.00 | 0.30 | 0.30 | 89 | 1011.0 |
| 20260508120913 | 16 | 156 | 1.6 | 3.2 | 0.00 | 0.30 | 0.30 | 90 | 1011.0 |
| 20260508120410 | 16 | 185 | 1.6 | 3.2 | 0.00 | 0.30 | 0.30 | 89 | 1010.8 |
| 20260508115908 | 16 | 152 | 4.8 | 8.0 | 0.00 | 0.30 | 0.30 | 90 | 1010.7 |
| 20260508115406 | 15 | 137 | 3.2 | 8.0 | 0.00 | 0.30 | 0.30 | 92 | 1010.8 |
| 20260508114902 | 15 | 189 | 1.6 | 3.2 | 0.00 | 0.30 | 0.30 | 93 | 1011.3 |
| 20260508114359 | 15 | 147 | 1.6 | 8.0 | 0.00 | 0.30 | 0.30 | 95 | 1011.0 |
| 20260508113855 | 15 | 121 | 0.0 | 1.6 | 0.00 | 0.30 | 0.30 | 98 | 1010.8 |
| 20260508113353 | 15 | 139 | 1.6 | 3.2 | 0.00 | 0.30 | 0.30 | 99 | 1010.9 |
| 20260508112850 | 15 | 151 | 0.0 | 0.0 | 0.00 | 0.30 | 0.30 | 99 | 1010.9 |
| 20260508112347 | 15 | 128 | 0.0 | 0.0 | 0.00 | 0.30 | 0.30 | 99 | 1011.1 |
| 20260508111843 | 15 | 87 | 0.0 | 0.0 | 0.13 | 0.30 | 0.30 | 99 | 1010.7 |
| 20260508111340 | 15 | 98 | 0.0 | 0.0 | 0.30 | 0.30 | 0.30 | 99 | 1010.5 |
| 20260508110838 | 15 | 116 | 3.2 | 3.2 | 0.18 | 0.28 | 0.28 | 99 | 1010.7 |
| 20260508110335 | 15 | 186 | 0.0 | 0.0 | 0.00 | 0.25 | 0.25 | 99 | 1010.8 |
| 20260508105835 | 15 | 197 | 0.0 | 0.0 | 0.00 | 0.25 | 0.25 | 99 | 1011.6 |
| 20260508105332 | 15 | 300 | 3.2 | 4.8 | 0.00 | 0.25 | 0.25 | 99 | 1011.9 |
| 20260508104829 | 15 | 309 | 3.2 | 3.2 | 0.00 | 0.25 | 0.25 | 98 | 1011.1 |
| 20260508104326 | 15 | 169 | 1.6 | 3.2 | 0.00 | 0.25 | 0.25 | 98 | 1011.0 |
| 20260508103823 | 15 | 72 | 1.6 | 1.6 | 0.00 | 0.25 | 0.25 | 98 | 1011.4 |
| 20260508103320 | 15 | 242 | 3.2 | 4.8 | 0.00 | 0.25 | 0.25 | 99 | 1011.3 |
| 20260508102818 | 15 | 350 | 0.0 | 0.0 | 0.00 | 0.25 | 0.25 | 98 | 1010.3 |
| 20260508102315 | 15 | 28 | 0.0 | 0.0 | 0.00 | 0.25 | 0.25 | 98 | 1010.3 |
| 20260508101812 | 15 | 357 | 0.0 | 3.2 | 0.00 | 0.25 | 0.25 | 97 | 1010.6 |
| 20260508101310 | 15 | 226 | 1.6 | 4.8 | 0.00 | 0.25 | 0.25 | 96 | 1010.4 |
| 20260508100807 | 15 | 159 | 1.6 | 8.0 | 0.00 | 0.25 | 0.25 | 96 | 1009.9 |
| 20260508100306 | 15 | 157 | 1.6 | 4.8 | 0.00 | 0.25 | 0.25 | 97 | 1009.9 |
| 20260508095801 | 15 | 116 | 1.6 | 3.2 | 0.00 | 0.25 | 0.25 | 99 | 1009.9 |
| 20260508095259 | 15 | 169 | 0.0 | 0.0 | 0.00 | 0.25 | 0.25 | 99 | 1009.8 |
| 20260508094755 | 15 | 102 | 0.0 | 0.0 | 0.00 | 0.25 | 0.25 | 99 | 1010.0 |
| 20260508094253 | 15 | 131 | 0.0 | 0.0 | 0.00 | 0.25 | 0.25 | 99 | 1010.3 |
| 20260508093749 | 15 | 134 | 0.0 | 0.0 | 0.00 | 0.25 | 0.25 | 99 | 1009.9 |
| 20260508093247 | 15 | 136 | 0.0 | 0.0 | 0.00 | 0.25 | 0.25 | 99 | 1010.1 |
| 20260508092744 | 15 | 142 | 0.0 | 0.0 | 0.00 | 0.25 | 0.25 | 99 | 1010.3 |
| 20260508092242 | 15 | 191 | 0.0 | 0.0 | 0.00 | 0.25 | 0.25 | 98 | 1010.2 |
| 20260508091740 | 15 | 138 | 1.6 | 3.2 | 0.00 | 0.25 | 0.25 | 98 | 1010.1 |
| 20260508091236 | 15 | 171 | 0.0 | 1.6 | 0.00 | 0.25 | 0.25 | 98 | 1010.3 |
| 20260508090734 | 15 | 182 | 0.0 | 0.0 | 0.13 | 0.25 | 0.25 | 98 | 1010.5 |
| 20260508090232 | 15 | 172 | 0.0 | 0.0 | 0.43 | 0.25 | 0.25 | 98 | 1010.4 |
| 20260508085727 | 15 | 46 | 0.0 | 0.0 | 0.13 | 0.20 | 0.20 | 97 | 1010.2 |
| 20260508085225 | 15 | 27 | 0.0 | 0.0 | 0.00 | 0.18 | 0.18 | 97 | 1010.8 |
| 20260508084720 | 15 | 6 | 0.0 | 3.2 | 0.00 | 0.18 | 0.18 | 96 | 1010.8 |
| 20260508084218 | 15 | 299 | 1.6 | 4.8 | 0.00 | 0.18 | 0.18 | 96 | 1011.0 |
| 20260508083716 | 15 | 311 | 3.2 | 3.2 | 0.30 | 0.18 | 0.18 | 95 | 1010.4 |
| 20260508083213 | 15 | 102 | 1.6 | 3.2 | 0.48 | 0.18 | 0.18 | 95 | 1009.6 |
| 20260508082708 | 15 | 86 | 3.2 | 3.2 | 0.00 | 0.10 | 0.10 | 96 | 1010.4 |
| 20260508082206 | 15 | 114 | 0.0 | 0.0 | 0.00 | 0.10 | 0.10 | 94 | 1010.8 |
| 20260508081703 | 15 | 263 | 0.0 | 1.6 | 0.13 | 0.10 | 0.10 | 93 | 1011.5 |
| 20260508081159 | 16 | 12 | 0.0 | 0.0 | 0.61 | 0.10 | 0.10 | 91 | 1011.1 |
| 20260508080657 | 16 | 337 | 1.6 | 3.2 | 0.48 | 0.08 | 0.08 | 86 | 1011.0 |
| 20260508080155 | 16 | 113 | 1.6 | 3.2 | 0.00 | 0.00 | 0.00 | 84 | 1011.1 |
| 20260508075651 | 16 | 55 | 0.0 | 0.0 | 0.00 | 0.00 | 0.00 | 83 | 1011.9 |
| 20260508075148 | 16 | 253 | 0.0 | 3.2 | 0.00 | 0.00 | 0.00 | 84 | 1012.2 |
| 20260508074646 | 16 | 242 | 1.6 | 3.2 | 0.00 | 0.00 | 0.00 | 84 | 1012.4 |
| 20260508074143 | 16 | 12 | 0.0 | 1.6 | 0.00 | 0.00 | 0.00 | 84 | 1012.0 |
| 20260508073640 | 16 | 262 | 1.6 | 3.2 | 0.00 | 0.00 | 0.00 | 85 | 1012.0 |
| 20260508073137 | 16 | 354 | 0.0 | 0.0 | 0.00 | 0.00 | 0.00 | 85 | 1011.5 |
| 20260508072633 | 16 | 123 | 0.0 | 0.0 | 0.00 | 0.00 | 0.00 | 85 | 1011.1 |
| 20260508072130 | 16 | 114 | 0.0 | 0.0 | 0.00 | 0.00 | 0.00 | 84 | 1011.5 |
| 20260508071628 | 16 | 90 | 0.0 | 0.0 | 0.00 | 0.00 | 0.00 | 84 | 1011.5 |
| 20260508071126 | 16 | 89 | 0.0 | 0.0 | 0.00 | 0.00 | 0.00 | 84 | 1011.4 |
| 20260508070623 | 16 | 121 | 0.0 | 0.0 | 0.00 | 0.00 | 0.00 | 85 | 1011.7 |
| 20260508070122 | 16 | 124 | 0.0 | 0.0 | 0.00 | 0.00 | 0.00 | 85 | 1011.8 |
| 20260508065618 | 15 | 118 | 0.0 | 0.0 | 0.00 | 0.00 | 0.00 | 85 | 1011.6 |
| 20260508065116 | 16 | 109 | 0.0 | 0.0 | 0.00 | 0.00 | 0.00 | 84 | 1011.7 |
| 20260508064614 | 16 | 108 | 0.0 | 0.0 | 0.00 | 0.00 | 0.00 | 84 | 1012.0 |
| 20260508064112 | 16 | 66 | 0.0 | 0.0 | 0.00 | 0.00 | 0.00 | 84 | 1012.0 |
| 20260508063609 | 16 | 354 | 0.0 | 0.0 | 0.00 | 0.00 | 0.00 | 83 | 1012.0 |
| 20260508063107 | 16 | 314 | 0.0 | 0.0 | 0.00 | 0.00 | 0.00 | 84 | 1012.2 |
| 20260508062604 | 16 | 118 | 0.0 | 0.0 | 0.00 | 0.00 | 0.00 | 84 | 1012.2 |
| 20260508062100 | 16 | 133 | 0.0 | 0.0 | 0.00 | 0.00 | 0.00 | 84 | 1012.1 |
| 20260508061558 | 16 | 153 | 0.0 | 0.0 | 0.00 | 0.00 | 0.00 | 84 | 1012.3 |
| 20260508061055 | 16 | 178 | 0.0 | 0.0 | 0.00 | 0.00 | 0.00 | 83 | 1012.1 |
| 20260508060552 | 16 | 167 | 0.0 | 0.0 | 0.00 | 0.00 | 0.00 | 83 | 1012.1 |
| 20260508060049 | 16 | 82 | 0.0 | 0.0 | 0.00 | 0.00 | 0.00 | 83 | 1011.7 |
| 20260508055545 | 15 | 129 | 0.0 | 0.0 | 0.00 | 0.00 | 0.00 | 83 | 1012.1 |
| 20260508055042 | 15 | 131 | 0.0 | 0.0 | 0.00 | 0.00 | 0.00 | 84 | 1012.1 |
| 20260508054538 | 15 | 133 | 0.0 | 0.0 | 0.00 | 0.00 | 0.00 | 84 | 1012.0 |
| 20260508054036 | 15 | 113 | 0.0 | 0.0 | 0.00 | 0.00 | 0.00 | 83 | 1012.1 |